Retour au catalogue

GLOBALSTAR M083

ActifCommunicationsLEO
NORAD 37739·PAYLOAD·🇺🇸 United States

Lancé Jul 13, 2011 depuis Baikonur Cosmodrome

Loading…

Prochains Passages (prochaines 24 heures)

TLE

FraisSource: Space-Track

Époque: Sep 14, 2026, 22:48 UTC

1 37739U 11033A   26257.95013801 -.00000085  00000-0  10497-3 0  9994
2 37739  51.9843  99.1610 0000637 103.7144  43.0221 12.62259211704287

Suivez GLOBALSTAR M083 en temps réel avec AllMySat

Download on the App Store